Regional Weather Roundup
Issued by NWS Northern Indiana

Home | Current Version | Previous Version | Text Only | Print | Product List | Glossary On
Versions: 1 2 3 4 5 6 7 8 9 10 11 12 13 14 15 16 17 18 19 20 21 22 23 24 25 26 27 28 29 30 31 32 33 34 35 36 37 38 39 40 41 42 43 44 45 46 47 48 49 50
000
ASUS43 KIWX 300710
RWRIWX

KIWX WEATHER ROUNDUP
NATIONAL WEATHER SERVICE NORTHERN INDIANA
300 AM EDT MON MAR 30 2015

NOTE: "FAIR" INDICATES FEW OR NO CLOUDS BELOW 12,000 FEET WITH NO
SIGNIFICANT WEATHER AND/OR OBSTRUCTIONS TO VISIBILITY.

* THESE STATIONS ARE NOT UNDER NWS QUALITY CONTROL. THEY ALSO MAY NOT
  REPORT WEATHER SUCH AS PRECIPITATION OR FOG.

INZ001>027-300800-
NORTHERN INDIANA

CITY           SKY/WX    TMP DP  RH WIND       PRES   REMARKS
GARY*          PTCLDY    37  30  75 W5        29.97R
VALPARAISO     PTCLDY    35  30  82 SW3       29.97R
MICHIGAN CITY* PTCLDY    39  30  70 W6        29.96R
LAPORTE*       MOCLDY    42  33  71 W6        29.95S
KNOX*            N/A     37  25  60 W6        29.95S
SOUTH BEND     PTCLDY    38  29  70 W8        29.94R
GOSHEN         CLEAR     40  30  67 W13       29.91R
MONTICELLO*    MOCLDY    37  33  84 SW5       29.97S
LOGANSPORT*    CLOUDY    36  34  93 W6        29.98R
ROCHESTER*     MOCLDY    45  36  70 NW12      29.96R
WARSAW*        CLEAR     39  32  75 W13       29.93R
ANGOLA*        CLOUDY    41  30  65 NW10      29.88R
FORT WAYNE     PTCLDY    41  32  70 W14       29.92R
HUNTINGTON*    PTCLDY    41  28  60 NW10G16   29.94R
PERU/GRISSOM   CLOUDY    40  34  80 W7        29.96R
MARION*        PTCLDY    38  33  82 W9        29.96F

$$
INZ028>050-300800-
CENTRAL INDIANA

CITY           SKY/WX    TMP DP  RH WIND       PRES   REMARKS
LAFAYETTE      PTCLDY    38  32  79 W6        29.99F
KOKOMO*          N/A     39  34  81 W10       29.97S
MUNCIE*        CLEAR     41  35  79 W10       29.97R
INDIANAPOLIS   MOCLDY    43  35  73 W7        30.00S

$$
MIZ043>046-050>051-056>058-064>065-071>073-077>080-300800-
SOUTHWEST LOWER MICHIGAN

CITY           SKY/WX    TMP DP  RH WIND       PRES   REMARKS
BATTLE CREEK   CLOUDY    40  31  70 W13G22    29.85R
BENTON HARBOR  MOCLDY    38  32  79 W16       29.92R
COLDWATER*     CLOUDY    40  31  71 W14       29.86R
HILLSDALE*     CLOUDY    41  33  72 W16G23    29.83R
HOLLAND        PTCLDY    40  30  67 W13G23    29.87R
GRAND RAPIDS   CLOUDY    39  31  72 W14       29.83R
KALAMAZOO      CLOUDY    39  30  70 W8        29.87R
STURGIS*       MOCLDY    39  30  70 W8        29.88R
THREE RIVERS*  CLOUDY    39  31  72 W9        29.89R

$$
OHZ001>008-015>018-024>025-300800-
NORTHWEST OHIO

CITY           SKY/WX    TMP DP  RH WIND       PRES   REMARKS
WAUSEON*       CLOUDY    43  32  65 W17G24    29.85R
DEFIANCE       CLOUDY    44  32  62 W8G17     29.88R
FINDLAY        MOCLDY    43  33  68 W15       29.86R
TOLEDO EXPRESS CLOUDY    42  31  64 W16G23    29.84R
TOLEDO METCALF CLOUDY    43  31  62 W22G28    29.84R
LIMA           MOCLDY    44  34  67 W17       29.89R

$$
AND FOR LAKE MICHIGAN COASTAL AND OPEN LAKE BUOY OBSERVATIONS

STATION/POSITION TEMP    WIND        PRES    VSBY  WAVE
                 AIR SEA DIR/SP/G                  HT/PER
                 (F)     (DEG/KT/KT) (MB)    (MI)  (FT/S)
CALUMET HARBOR    42     250/  4/  6 1013.4R
MICHIGAN CITY     37     220/ 11/ 11   N/A
BURNS HARBOR      39     250/  8/  9 1014.9S
SAINT JOSEPH      36     230/  7/ 10 1013.5R

$$
&&


USA.gov is the U.S. government's official web portal to all federal, state and local government web resources and services.